Location: Unspecified
(0.0000°N, 1.0000°E)
Time: 08:43:16
(UTC+01:00)

Amateur Radio Satellites - All Passes

Search period start: 09 February 2016 08:13
Search period end: 10 February 2016 08:13
Location: Unspecified, 0.0000°N, 1.0000°E

Satellite Date Start Highest point End Downlink Frequencies (MHz)
Time Altitude Azimuth
Cubesat XI-IV 09 Feb 08:16:01 08:17:33 11° 283° (WNW) 08:19:06 437.490
COMPASS 1 09 Feb 08:28:07 08:30:38 16° 102° (ESE) 08:33:09 437.405
DOVE 4 09 Feb 08:29:15 08:33:20 66° 282° (WNW) 08:37:32 437.250
CUTE 1.7 + AOD 2 09 Feb 08:30:27 08:34:25 37° 102° (ESE) 08:38:24 437.475
SEEDS 09 Feb 08:38:55 08:42:46 34° 102° (ESE) 08:46:37 437.485
GOMX 1 09 Feb 08:44:07 08:46:45 16° 282° (WNW) 08:49:23 467.674
GONETS M04 09 Feb 08:48:01 08:55:43 35° 93° (E) 09:03:20
STRAND 1 09 Feb 08:55:32 08:58:10 14° 257° (WSW) 09:00:47 437.568
AAUSAT CUBESAT 2 09 Feb 08:56:37 09:00:20 31° 102° (ESE) 09:04:05 437.432
Cosmos 2499 09 Feb 09:00:48 09:03:35 12° 92° (E) 09:06:22 435.465 / 435.565
O/OREOS (USA 219) 09 Feb 09:01:42 09:03:56 14° 285° (WNW) 09:06:12 437.305
HO-68 09 Feb 09:06:39 09:13:49 78° 285° (WNW) 09:21:00 435.675
PRISM 09 Feb 09:08:05 09:11:34 27° 258° (WSW) 09:15:03 437.425
ZACube-1 09 Feb 09:11:41 09:13:20 12° 103° (ESE) 09:14:58 437.345
CANX-2 09 Feb 09:15:15 09:19:14 38° 281° (WNW) 09:23:15 2200.000
FUNcube-1 09 Feb 09:20:22 09:22:56 15° 102° (ESE) 09:25:32 145.935
SRMSAT 09 Feb 09:27:21 09:32:26 29° 341° (NNW) 09:37:31 437.500
CINEMA 3 09 Feb 09:31:50 09:35:38 34° 281° (W) 09:39:37 145.822/145.860
AO-85 09 Feb 09:34:05 09:38:32 41° 111° (ESE) 09:43:21 145.980
CUBEBUG 2 09 Feb 09:45:29 09:49:48 86° 284° (WNW) 09:54:18 437.445
JUGNU 09 Feb 09:46:33 09:48:37 12° 351° (N) 09:50:41 437.505
UWE-3 09 Feb 09:48:33 09:52:51 69° 101° (E) 09:57:18 435.000/436.395/437.385
Oscar 11 09 Feb 09:53:19 09:57:39 70° 102° (ESE) 10:01:59 145.826/435.025
COMPASS 1 09 Feb 10:02:50 10:05:56 20° 282° (WNW) 10:09:04 437.405
PHONESAT 2.4 09 Feb 10:09:11 10:12:16 41° 43° (NE) 10:15:21 2401.200-2431.200
DELFI C3 09 Feb 10:18:25 10:22:27 74° 101° (E) 10:26:29 145.870
ANTELSAT 09 Feb 10:25:50 10:29:31 25° 79° (ENE) 10:33:06 437.575/2403.000
TIGRISAT 09 Feb 10:32:50 10:36:45 30° 79° (E) 10:40:34 435.000
PCSat 09 Feb 10:34:24 10:39:49 88° 110° (ESE) 10:45:13 145.827
GONETS M04 09 Feb 10:44:59 10:52:07 29° 273° (W) 10:59:16
ZACube-1 09 Feb 10:45:36 10:49:18 28° 281° (W) 10:53:07 437.345
Cosmos 2499 09 Feb 10:48:02 10:56:07 73° 273° (W) 11:04:46 435.465 / 435.565
FUNcube-1 09 Feb 10:55:33 10:58:54 22° 281° (W) 11:02:20 145.935
AIST 1 09 Feb 11:08:14 11:12:36 79° 94° (E) 11:16:59
AISAT 09 Feb 11:12:10 11:14:52 16° 103° (ESE) 11:17:33 437.250
RS-15 09 Feb 11:12:29 11:23:22 82° 110° (ESE) 11:34:30 29.354- 29.394
HUMSAT D 09 Feb 11:12:33 11:16:40 54° 282° (WNW) 11:20:52 437.325/437.525
UNISAT 6 09 Feb 11:16:34 11:21:00 58° 258° (WSW) 11:25:18 437.425
AO-85 09 Feb 11:17:06 11:18:57 12° 294° (WNW) 11:20:51 145.980
SRMSAT 09 Feb 11:19:17 11:22:12 14° 349° (NNW) 11:25:07 437.500
ESTCUBE 1 09 Feb 11:28:53 11:32:53 31° 102° (ESE) 11:36:53 437.505/2401.250
UKube-1 09 Feb 11:29:39 11:33:07 24° 102° (ESE) 11:36:35 .
CUBEBUG 1 09 Feb 11:33:54 11:37:24 24° 102° (ESE) 11:40:53 437.445
DX 1 09 Feb 11:39:19 11:43:24 41° 103° (ESE) 11:47:28 434.975-435.025
POLYITAN 1 09 Feb 11:40:59 11:45:07 47° 78° (ENE) 11:49:12 437.675
QB50P2 09 Feb 11:41:39 11:45:49 51° 78° (ENE) 11:49:56 145.880/145.840
BUGSAT 1 09 Feb 11:49:44 11:53:11 24° 78° (ENE) 11:56:36 437.445
ANTELSAT 09 Feb 12:03:41 12:05:57 14° 257° (WSW) 12:08:11 437.575/2403.000
POPSAT HIP 1 09 Feb 12:11:33 12:15:47 60° 259° (WSW) 12:19:58 437.405
TIGRISAT 09 Feb 12:11:38 12:13:09 12° 257° (WSW) 12:14:38 435.000
NANOSAT C BR1 09 Feb 12:16:56 12:21:04 51° 258° (WSW) 12:25:11 145.865
50 SAT 09 Feb 12:17:18 12:20:48 35° 281° (WNW) 12:24:20 437.505
DUCHIFAT 1 09 Feb 12:18:47 12:22:55 51° 258° (WSW) 12:27:02 145.980
QB50P1 09 Feb 12:24:32 12:28:30 37° 258° (WSW) 12:32:27 145.935-145.965
VELOX 1 09 Feb 12:30:33 12:34:37 38° 282° (WNW) 12:38:41 145.980
AISAT 09 Feb 12:47:47 12:51:06 21° 282° (WNW) 12:54:25 437.250
Oscar 19 09 Feb 13:02:26 13:05:18 15° 77° (ENE) 13:08:10 437.125/150
JAS-2 09 Feb 13:04:36 13:09:32 18° 77° (ENE) 13:14:22 435.910
UKube-1 09 Feb 13:06:47 13:08:54 14° 282° (WNW) 13:11:03 .
ESTCUBE 1 09 Feb 13:08:02 13:09:26 11° 282° (WNW) 13:10:48 437.505/2401.250
CUBEBUG 1 09 Feb 13:11:19 13:13:25 13° 282° (WNW) 13:15:32 437.445
SPROUT 09 Feb 13:15:45 13:19:44 40° 282° (WNW) 13:23:44 437.525
JUGNU 09 Feb 13:25:42 13:28:51 15° 12° (NNE) 13:32:00 437.505
BUGSAT 1 09 Feb 13:26:16 13:28:17 13° 258° (WSW) 13:30:18 437.445
TISAT 1 09 Feb 13:27:57 13:32:06 80° 103° (ESE) 13:36:17 437.305
RS-15 09 Feb 13:30:54 13:35:37 14° 294° (WNW) 13:40:25 29.354- 29.394
ITUPSAT 1 09 Feb 13:41:32 13:43:20 12° 103° (ESE) 13:45:08 437.325
BEESAT 09 Feb 13:49:24 13:52:22 16° 103° (ESE) 13:55:19 436.000
CUSAT 1 09 Feb 13:55:44 13:59:13 31° 81° (E) 14:02:02 437.405
ITAMSAT 1 09 Feb 14:10:43 14:12:15 11° 77° (ENE) 14:13:48 435.822/435.867
ISS 09 Feb 14:21:44 14:24:59 67° 305° (NW) 14:28:12 145.825
DANDE 09 Feb 14:21:54 14:26:21 33° 80° (E) 14:29:47 436.750
Oscar 19 09 Feb 14:39:43 14:44:21 33° 257° (WSW) 14:48:59 437.125/150
SWISSCUBE 09 Feb 14:39:44 14:44:31 90° 111° (ESE) 14:49:20 437.505
JAS-2 09 Feb 14:46:30 14:54:08 58° 257° (WSW) 15:01:44 435.910
SRMSAT 09 Feb 15:00:17 15:02:48 13° 10° (N) 15:05:19 437.500
Gurwin Techsat 1B 09 Feb 15:03:41 15:08:55 62° 257° (WSW) 15:14:10 435.225
JUGNU 09 Feb 15:13:13 15:18:22 32° 19° (NNE) 15:23:33 437.505
ITUPSAT 1 09 Feb 15:16:33 15:20:53 34° 283° (WNW) 15:25:15 437.325
BEESAT 09 Feb 15:25:56 15:29:52 26° 282° (WNW) 15:33:49 436.000
STARS 09 Feb 15:28:45 15:29:57 11° 103° (ESE) 15:31:10 437.465
Cosmos 2491 09 Feb 15:33:11 15:41:52 67° 93° (E) 15:50:29 435.465 / 435.565
KKS-1 09 Feb 15:40:45 15:44:52 39° 102° (ESE) 15:49:01 437.445
ITAMSAT 1 09 Feb 15:46:35 15:51:27 42° 257° (WSW) 15:56:18 435.822/435.867
YUBILEINY 09 Feb 15:55:32 16:04:21 88° 87° (E) 16:13:08 435.215
Cosmos 2504 09 Feb 16:09:31 16:11:41 11° 85° (E) 16:13:48 435.465 / 435.565
BEESAT 3 09 Feb 16:10:00 16:13:28 29° 112° (ESE) 16:16:56 437.485
AO-7 09 Feb 16:15:27 16:23:47 72° 74° (ENE) 16:32:06 29.400- 29.500
M-CUBED/EXP-1 PRIME 09 Feb 16:16:46 16:20:40 36° 76° (ENE) 16:24:15 437.505
AUBIESAT-1 09 Feb 16:27:14 16:31:08 39° 76° (ENE) 16:34:44 437.475
BEESAT 2 09 Feb 16:32:43 16:36:22 35° 112° (ESE) 16:40:01 435.950
SO-50 09 Feb 16:47:15 16:51:38 50° 249° (WSW) 16:55:55 436.795
SRMSAT 09 Feb 16:47:47 16:52:40 26° 18° (NNE) 16:57:33 437.500
JUGNU 09 Feb 17:01:36 17:07:28 88° 22° (NNE) 17:13:22 437.505
STARS 09 Feb 17:02:14 17:06:02 30° 282° (WNW) 17:09:52 437.465
MOZHAYETS 4 09 Feb 17:05:15 17:09:41 46° 282° (WNW) 17:14:08
HORYU 2 09 Feb 17:20:27 17:24:47 51° 258° (WSW) 17:29:03 437.375
Cosmos 2491 09 Feb 17:34:34 17:38:18 13° 273° (W) 17:42:01 435.465 / 435.565
CUBESAT XI-V 09 Feb 17:44:31 17:48:32 29° 102° (ESE) 17:52:33 437.345
Cosmos 2504 09 Feb 17:56:57 18:04:55 67° 267° (W) 18:12:21 435.465 / 435.565
AO-7 09 Feb 18:12:22 18:16:06 14° 253° (WSW) 18:19:50 29.400- 29.500
BRITE-PL 09 Feb 18:20:08 18:23:26 16° 77° (ENE) 18:26:46 437.365/2234.400
AIST 2 09 Feb 18:22:16 18:26:23 64° 111° (ESE) 18:30:30 435.215
SRMSAT 09 Feb 18:36:05 18:42:01 68° 21° (NNE) 18:47:59 437.500
JUGNU 09 Feb 18:51:18 18:56:34 34° 199° (SSW) 19:01:53 437.505
CUTE-I 09 Feb 18:58:32 19:03:52 87° 259° (WSW) 19:09:11 437.470
Cubesat XI-IV 09 Feb 19:12:09 19:17:23 60° 257° (WSW) 19:22:37 437.490
LilacSat-2 09 Feb 19:12:23 19:16:09 50° 259° (WSW) 19:19:52 437.200
DOVE 4 09 Feb 19:14:26 19:16:55 13° 79° (ENE) 19:19:24 437.250
CUBESAT XI-V 09 Feb 19:23:32 19:25:39 13° 282° (WNW) 19:27:46 437.345
GOMX 1 09 Feb 19:27:19 19:32:33 46° 78° (ENE) 19:37:46 467.674
O/OREOS (USA 219) 09 Feb 19:31:26 19:35:46 42° 76° (ENE) 19:40:07 437.305
PRISM 09 Feb 19:37:58 19:39:35 12° 102° (ESE) 19:41:11 437.425
STRAND 1 09 Feb 19:46:42 19:51:51 86° 105° (ESE) 19:57:01 437.568
BRITE-PL 09 Feb 19:56:29 20:01:33 38° 259° (WSW) 20:06:46 437.365/2234.400
CINEMA 3 09 Feb 20:12:18 20:15:43 19° 79° (E) 20:19:02 145.822/145.860
SRMSAT 09 Feb 20:25:35 20:31:16 44° 200° (SSW) 20:36:59 437.500
COMPASS 1 09 Feb 20:32:20 20:35:05 17° 78° (ENE) 20:37:50 437.405
CUTE 1.7 + AOD 2 09 Feb 20:36:56 20:40:58 45° 79° (ENE) 20:44:58 437.475
JUGNU 09 Feb 20:42:41 20:46:06 16° 193° (SSW) 20:49:32 437.505
SEEDS 09 Feb 20:44:22 20:48:16 40° 79° (ENE) 20:52:10 437.485
DOVE 4 09 Feb 20:49:26 20:54:21 39° 258° (WSW) 20:59:10 437.250
HO-68 09 Feb 20:58:13 21:05:25 89° 71° (ENE) 21:12:35 435.675
AAUSAT CUBESAT 2 09 Feb 21:00:29 21:04:14 35° 79° (ENE) 21:08:00 437.432
GOMX 1 09 Feb 21:08:11 21:10:17 12° 258° (WSW) 21:12:24 467.674
Cosmos 2499 09 Feb 21:10:22 21:14:12 15° 85° (E) 21:17:56 435.465 / 435.565
PRISM 09 Feb 21:11:18 21:14:39 24° 282° (WNW) 21:18:00 437.425
GONETS M04 09 Feb 21:20:27 21:29:13 69° 87° (E) 21:38:01
ZACube-1 09 Feb 21:20:52 21:23:35 16° 79° (E) 21:26:15 437.345
CANX-2 09 Feb 21:22:12 21:25:53 30° 258° (WSW) 21:29:34 2200.000
PCSat 09 Feb 21:29:15 21:32:51 18° 70° (ENE) 21:36:27 145.827
FUNcube-1 09 Feb 21:29:40 21:32:55 21° 79° (E) 21:36:05 145.935
PHONESAT 2.4 09 Feb 21:42:08 21:45:01 28° 137° (SE) 21:47:53 2401.200-2431.200
AO-85 09 Feb 21:48:11 21:52:37 76° 67° (ENE) 21:56:40 145.980
CINEMA 3 09 Feb 21:48:43 21:52:35 23° 257° (WSW) 21:56:20 145.822/145.860
CUBEBUG 2 09 Feb 21:58:21 22:02:51 55° 258° (WSW) 22:07:10 437.445
UWE-3 09 Feb 22:00:07 22:04:36 80° 257° (WSW) 22:08:56 435.000/436.395/437.385
Oscar 11 09 Feb 22:02:10 22:06:29 86° 259° (WSW) 22:10:46 145.826/435.025
COMPASS 1 09 Feb 22:07:44 22:10:24 17° 258° (WSW) 22:13:05 437.405
SRMSAT 09 Feb 22:16:41 22:20:50 19° 195° (SSW) 22:25:00 437.500
DELFI C3 09 Feb 22:17:55 22:21:52 72° 78° (ENE) 22:25:48 145.870
ANTELSAT 09 Feb 22:38:19 22:42:29 39° 102° (ESE) 22:46:45 437.575/2403.000
TIGRISAT 09 Feb 22:45:14 22:49:29 45° 102° (ESE) 22:53:53 435.000
RS-15 09 Feb 22:53:42 23:05:59 72° 70° (ENE) 23:17:56 29.354- 29.394
ZACube-1 09 Feb 22:56:24 22:59:37 20° 258° (WSW) 23:02:47 437.345
Cosmos 2499 09 Feb 22:59:40 23:07:07 53° 267° (W) 23:14:08 435.465 / 435.565
FUNcube-1 09 Feb 23:06:14 23:08:53 16° 257° (WSW) 23:11:30 145.935
VELOX 1 09 Feb 23:08:04 23:10:12 13° 78° (ENE) 23:12:20 145.980
PCSat 09 Feb 23:11:20 23:15:59 29° 251° (WSW) 23:20:37 145.827
AIST 1 09 Feb 23:15:01 23:19:17 72° 266° (W) 23:23:31
HUMSAT D 09 Feb 23:17:56 23:21:54 44° 258° (WSW) 23:25:48 437.325/437.525
PHONESAT 2.4 09 Feb 23:20:21 23:22:09 14° 318° (NW) 23:23:58 2401.200-2431.200
GONETS M04 09 Feb 23:22:01 23:25:39 13° 267° (W) 23:29:19
AISAT 09 Feb 23:23:11 23:26:46 24° 78° (ENE) 23:30:21 437.250
UNISAT 6 09 Feb 23:29:49 23:33:56 38° 282° (WNW) 23:38:12 437.425
UKube-1 09 Feb 23:37:57 23:41:49 32° 78° (ENE) 23:45:40 .
ESTCUBE 1 09 Feb 23:42:43 23:47:04 50° 78° (ENE) 23:51:25 437.505/2401.250
CUBEBUG 1 09 Feb 23:43:34 23:47:36 34° 78° (ENE) 23:51:36 437.445
POLYITAN 1 09 Feb 23:47:20 23:51:28 59° 101° (ESE) 23:55:39 437.675
QB50P2 09 Feb 23:48:00 23:52:10 64° 102° (ESE) 23:56:21 145.880/145.840
DX 1 09 Feb 23:48:49 23:53:08 58° 78° (ENE) 23:57:26 434.975-435.025
SPROUT 09 Feb 23:51:31 23:51:47 10° 78° (ENE) 23:52:03 437.525
BUGSAT 1 09 Feb 23:53:00 23:56:19 25° 102° (ESE) 23:59:38 437.445
SRMSAT 10 Feb 00:09:30 00:10:58 11° 185° (S) 00:12:26 437.500
50 SAT 10 Feb 00:10:01 00:13:34 46° 258° (WSW) 00:17:07 437.505
POPSAT HIP 1 10 Feb 00:17:56 00:21:59 47° 281° (WNW) 00:26:03 437.405
NANOSAT C BR1 10 Feb 00:22:58 00:26:55 41° 282° (WNW) 00:30:53 145.865
JUGNU 10 Feb 00:24:13 00:26:24 12° 172° (S) 00:28:35 437.505
DUCHIFAT 1 10 Feb 00:24:34 00:28:30 41° 282° (WNW) 00:32:28 145.980
QB50P1 10 Feb 00:30:58 00:34:40 30° 281° (WNW) 00:38:22 145.935-145.965
VELOX 1 10 Feb 00:42:39 00:46:25 27° 258° (WSW) 00:50:10 145.980
CUSAT 1 10 Feb 00:51:49 00:54:53 13° 90° (E) 00:58:07 437.405
AISAT 10 Feb 01:00:25 01:03:00 15° 258° (WSW) 01:05:33 437.250
RS-15 10 Feb 01:10:12 01:18:05 20° 248° (WSW) 01:25:55 29.354- 29.394
UKube-1 10 Feb 01:17:11 01:17:36 10° 257° (WSW) 01:18:00 .
DANDE 10 Feb 01:23:37 01:25:30 11° 89° (E) 01:27:30 436.750
SPROUT 10 Feb 01:23:40 01:27:30 31° 258° (WSW) 01:31:19 437.525
BUGSAT 1 10 Feb 01:30:34 01:31:27 11° 282° (WNW) 01:32:20 437.445
TISAT 1 10 Feb 01:33:24 01:37:41 84° 258° (WSW) 01:41:55 437.305
Oscar 19 10 Feb 01:34:12 01:38:54 38° 103° (ESE) 01:43:37 437.125/150
ISS 10 Feb 01:55:25 01:58:37 67° 55° (NE) 02:01:51 145.825
SRMSAT 10 Feb 01:59:59 02:01:22 11° 175° (S) 02:02:45 437.500
ITUPSAT 1 10 Feb 02:01:56 02:05:41 23° 78° (ENE) 02:09:26 437.325
Gurwin Techsat 1B 10 Feb 02:03:27 02:07:41 24° 103° (ESE) 02:11:54 435.225
BEESAT 10 Feb 02:10:09 02:14:20 31° 78° (ENE) 02:18:29 436.000
JUGNU 10 Feb 02:11:34 02:16:13 23° 163° (SSE) 02:20:52 437.505
Cosmos 2491 10 Feb 02:14:57 02:19:01 14° 87° (E) 02:23:03 435.465 / 435.565
JAS-2 10 Feb 02:21:18 02:26:28 82° 102° (ESE) 02:31:45 435.910
CUSAT 1 10 Feb 02:29:52 02:36:22 64° 276° (W) 02:44:10 437.405
YUBILEINY 10 Feb 02:35:27 02:41:24 20° 93° (E) 02:47:20 435.215
ITAMSAT 1 10 Feb 02:42:37 02:47:12 31° 103° (ESE) 02:51:47 435.822/435.867
AO-7 10 Feb 02:54:31 02:57:49 13° 108° (ESE) 03:01:06 29.400- 29.500
DANDE 10 Feb 03:01:39 03:07:29 62° 276° (W) 03:14:59 436.750
SWISSCUBE 10 Feb 03:02:03 03:06:35 45° 257° (WSW) 03:11:07 437.505
Oscar 19 10 Feb 03:15:52 03:17:57 12° 283° (WNW) 03:20:02 437.125/150
SO-50 10 Feb 03:21:10 03:23:49 15° 112° (ESE) 03:26:30 436.795
STARS 10 Feb 03:38:17 03:41:02 16° 78° (ENE) 03:43:45 437.465
ITUPSAT 1 10 Feb 03:40:06 03:43:15 18° 257° (WSW) 03:46:24 437.325
Gurwin Techsat 1B 10 Feb 03:43:22 03:47:20 22° 283° (WNW) 03:51:20 435.225
MOZHAYETS 4 10 Feb 03:47:19 03:49:35 14° 78° (ENE) 03:51:51
SRMSAT 10 Feb 03:47:25 03:51:30 19° 165° (SSE) 03:55:35 437.500
BEESAT 10 Feb 03:49:39 03:51:51 13° 257° (WSW) 03:54:03 436.000
KKS-1 10 Feb 03:53:04 03:57:30 61° 78° (ENE) 04:01:54 437.445
JUGNU 10 Feb 03:59:37 04:05:31 57° 159° (SSE) 04:11:24 437.505
HORYU 2 10 Feb 04:00:32 04:00:55 10° 103° (ESE) 04:01:18 437.375
BEESAT 3 10 Feb 04:03:02 04:06:30 30° 68° (ENE) 04:09:56 437.485
Cosmos 2491 10 Feb 04:06:46 04:15:26 66° 267° (W) 04:24:11 435.465 / 435.565
M-CUBED/EXP-1 PRIME 10 Feb 04:16:34 04:20:00 33° 107° (ESE) 04:23:44 437.505
Cosmos 2504 10 Feb 04:17:05 04:22:05 18° 92° (E) 04:27:13 435.465 / 435.565
ITAMSAT 1 10 Feb 04:23:16 04:26:24 16° 283° (WNW) 04:29:32 435.822/435.867
AUBIESAT-1 10 Feb 04:26:28 04:30:01 36° 107° (ESE) 04:33:51 437.475
BEESAT 2 10 Feb 04:26:45 04:30:24 37° 68° (ENE) 04:34:03 435.950
YUBILEINY 10 Feb 04:29:29 04:37:48 49° 273° (W) 04:46:09 435.215
AO-7 10 Feb 04:41:53 04:50:08 74° 286° (WNW) 04:58:24 29.400- 29.500
SO-50 10 Feb 04:59:58 05:04:02 29° 292° (WNW) 05:08:12 436.795
STARS 10 Feb 05:13:44 05:17:08 22° 257° (WSW) 05:20:31 437.465
MOZHAYETS 4 10 Feb 05:22:40 05:26:30 27° 258° (WSW) 05:30:18
HORYU 2 10 Feb 05:33:10 05:37:11 34° 282° (WNW) 05:41:15 437.375
SRMSAT 10 Feb 05:35:25 05:41:04 43° 160° (SSE) 05:46:42 437.500
JUGNU 10 Feb 05:48:46 05:54:36 53° 339° (NNW) 06:00:25 437.505
CUTE-I 10 Feb 05:59:51 06:03:25 18° 103° (ESE) 06:06:59 437.470
CUBESAT XI-V 10 Feb 06:02:20 06:06:52 52° 78° (ENE) 06:11:24 437.345
Cosmos 2504 10 Feb 06:07:13 06:14:55 53° 273° (W) 06:23:11 435.465 / 435.565
Cubesat XI-IV 10 Feb 06:12:40 06:17:06 26° 103° (ESE) 06:21:31 437.490
AIST 2 10 Feb 06:20:44 06:24:49 80° 69° (ENE) 06:28:54 435.215
STRAND 1 10 Feb 06:43:26 06:45:37 13° 77° (ENE) 06:47:47 437.568
BRITE-PL 10 Feb 06:46:55 06:50:19 24° 101° (E) 06:53:40 437.365/2234.400
LilacSat-2 10 Feb 07:06:58 07:10:43 62° 280° (W) 07:14:30 437.200
SRMSAT 10 Feb 07:24:22 07:30:18 69° 339° (NNW) 07:36:12 437.500
DOVE 4 10 Feb 07:34:24 07:37:13 18° 102° (ESE) 07:40:06 437.250
CUTE-I 10 Feb 07:38:35 07:43:11 30° 283° (WNW) 07:47:48 437.470
JUGNU 10 Feb 07:39:28 07:43:54 21° 344° (NNW) 07:48:20 437.505
PRISM 10 Feb 07:40:37 07:42:38 13° 78° (ENE) 07:44:37 437.425
O/OREOS (USA 219) 10 Feb 07:42:21 07:46:48 74° 104° (ESE) 07:51:14 437.305
GOMX 1 10 Feb 07:51:55 07:56:04 87° 107° (ESE) 08:00:15 467.674
Cubesat XI-IV 10 Feb 07:52:59 07:56:53 21° 283° (WNW) 08:00:48 437.490
CANX-2 10 Feb 07:54:50 07:56:48 13° 102° (ESE) 07:58:47 2200.000
GONETS M04 10 Feb 08:02:21 08:06:31 14° 93° (E) 08:10:39
